RS-38S
1 57189U 23091Z   26190.81284299  .00012356  00000-0  34600-3 0  9999
2 57189  97.5083 260.7611 0006162   1.5183 358.6078 15.36760705168169
SONATE-2
1 59112U 24043Q   26189.95391721  .00032794  00000-0  39918-3 0  9992
2 59112  97.5551 341.7151 0006851 125.1780 235.0119 15.60447177131286
GRBBeta
1 60237U 24128C   26190.31968764  .00002568  00000-0  18354-3 0  9992
2 60237  61.9890 138.6053 0037769 139.4381 220.9537 15.06782844109609
Curium One
1 60242U 24128H   26190.24899520  .00005356  00000-0  31109-3 0  9994
2 60242  61.9778 127.6180 0037292 135.2244 225.1872 15.12812126109795
ROBUSTA-3A
1 60243U 24128J   26190.22635085  .00005214  00000-0  31033-3 0  9996
2 60243  61.9854 130.2913 0038630 132.7445 227.6912 15.11930024109752
CatSat
1 60246U 24125J   26190.65375772  .00053285  00000-0  61137-3 0  9996
2 60246  97.2075  43.4908 0021055 102.4817 257.8799 15.61638798110894
HYPERVIEW-1G (RS66S)
1 61772U 24199AP  26190.74637862  .00159831  00000-0  72497-3 0  9998
2 61772  97.2816  71.7182 0008043 158.8906 201.2697 15.83438080138230
AO-123
1 61781U 24199AY  26190.77325855  .00005441  00000-0  15718-3 0  9997
2 61781  97.2978  59.2421 0012443 221.4124 138.6178 15.36001938137393
JINJUSat 1B
1 63210U 25052A   26190.58760650  .00011839  00000-0  35947-3 0  9994
2 63210  97.3982  87.3803 0003869  42.5354 317.6188 15.34230612 73539
NUSHSAT 1
1 63211U 25052B   26190.13825602  .00016685  00000-0  46457-3 0  9997
2 63211  97.3952  87.5740 0003840  52.0557 308.1034 15.36873987 73512
TEVEL2-4
1 63213U 25052D   26190.15084270  .00014785  00000-0  43162-3 0  9998
2 63213  97.3875  86.5872 0004043  63.9062 296.2597 15.35417814 73480
TEVEL2-5
1 63214U 25052E   26189.65245370  .00014062  00000-0  41324-3 0  9998
2 63214  97.3873  86.0291 0004130  66.2017 293.9660 15.35218873 73403
TEVEL2-6
1 63215U 25052F   26190.77333909  .00013669  00000-0  40184-3 0  9995
2 63215  97.3877  87.1376 0003968  66.9512 293.2149 15.35215103 73575
TEVEL2-1
1 63217U 25052H   26187.68057351  .00015226  00000-0  45647-3 0  9997
2 63217  97.3844  83.6383 0004748  76.8203 283.3570 15.34567986 73086
TEVEL2-3
1 63218U 25052J   26189.69578096  .00013069  00000-0  39086-3 0  9998
2 63218  97.3853  85.6806 0004447  73.4678 286.7053 15.34682438 73391
TEVEL2-2
1 63219U 25052K   26189.50651823  .00013021  00000-0  39012-3 0  9996
2 63219  97.3852  85.4689 0004705  73.9445 286.2316 15.34625790 73364
TEVEL2-9
1 63237U 25052AD  26189.64245198  .00012819  00000-0  40918-3 0  9996
2 63237  97.3915  84.9331 0008135  74.7614 285.4527 15.32589963 73319
TEVEL2-7
1 63238U 25052AE  26190.14472437  .00012598  00000-0  40596-3 0  9998
2 63238  97.3915  85.3410 0008177  73.4228 286.7911 15.32290225 73384
TEVEL2-8
1 63239U 25052AF  26189.69605479  .00011621  00000-0  37502-3 0  9990
2 63239  97.3912  84.8694 0008176  75.3495 284.8653 15.32263765 73310
SPIRONE
1 66657U 25274H   26190.02806254  .00001630  00000-0  15955-3 0  9993
2 66657  97.7473 119.0077 0010545 307.3509  52.6750 14.93639889 33489
K-HERO
1 66660U 25274L   26190.22752726  .00001691  00000-0  16365-3 0  9996
2 66660  97.7483 119.3817 0012497 310.4997  49.5133 14.94050554 33525
SNUGLITE-III DURI
1 66661U 25274M   26189.74597711  .00001619  00000-0  15678-3 0  9999
2 66661  97.7481 118.9275 0013298 312.5896  47.4201 14.94076821 33458
SAKHACUBE-CHOLBON
1 67290U 25313AU  26189.74678459  .00006937  00000-0  27826-3 0  9997
2 67290  97.3926 264.5166 0007598 278.6002  81.4375 15.25284677 29260
RS95S (QMR-KWT-2)
1 67291U 25313AV  26190.17279491  .00010026  00000-0  38217-3 0  9990
2 67291  97.3923 265.1611 0007270 272.3697  87.6710 15.26872891 29340
Ten-Koh2
1 68261U 25241B   26189.45844170  .00002521  00000-0  11593-3 0  9998
2 68261  51.6621 218.3823 0004694 207.2667 152.8066 15.24131868 18158
JACK-002
1 68417U 26067B   26190.68278499  .00004597  00000-0  21868-3 0  9991
2 68417  97.4574 149.0003 0002504 144.8947 215.2453 15.19672474 15362
DISCO 2
1 68431U 26067R   26190.11548801  .00005516  00000-0  26371-3 0  9998
2 68431  97.4606 148.4284 0000136  47.5002 312.6244 15.19411346 15277
HADES-SA (SpinnyONE)
1 68446U 26067AG  26189.82258940  .00012945  00000-0  60610-3 0  9990
2 68446  97.4405 147.8060 0006964  24.5810 335.5756 15.19835832 15218
PARUS-6U1
1 68456U 26067AS  26189.88078445  .00003662  00000-0  18468-3 0  9997
2 68456  97.4559 147.9145 0005485  10.6728 349.4621 15.17751564 15228
SAL-E
1 68458U 26067AU  26189.87219494  .00004751  00000-0  23633-3 0  9999
2 68458  97.4484 147.8302 0006081  20.4628 339.6848 15.18080197 15222
FSI-SAT 2
1 68792U 26088A   26190.39767912  .00002300  00000-0  15728-3 0  9999
2 68792  97.5091 339.1049 0015162  37.6110 322.6175 15.07015150 11639
OrigamiSat 2
1 68795U 26088D   26189.91244322  .00007297  00000-0  46134-3 0  9998
2 68795  97.5082 338.8357 0014573   8.5855 351.5621 15.09230746 11570
ARICA 2
1 68796U 26088E   26189.91842140  .00001986  00000-0  13072-3 0  9995
2 68796  97.5082 338.8139 0015604   9.7560 350.3969 15.08598758 11572
WASEDA-SAT-ZERO-II
1 68797U 26088F   26189.64528769  .00003668  00000-0  23616-3 0  9998
2 68797  97.5078 338.5628 0015342   9.7311 350.4212 15.08882527 11539
MANGARO-II-Piscus
1 68798U 26088G   26188.97119167  .00002620  00000-0  16935-3 0  9995
2 68798  97.5090 337.9381 0019136  14.3334 345.8433 15.08933048 11432
IO-86
1 40931U          25360.30710720  .00000000  00000-0  12800-3 0    00
2 40931   6.0006 332.5373 0012733 338.8432   8.1437 14.79075515    01
LILIUM-4                
1 71922C 26067AC  26089.50133053 -.00014632  00000+0 -74472-3 0    04
2 71922  97.4497  49.1617 0004341   5.9603 355.7042 15.16896692    16
